Time,TemperatureF,DewpointF,PressureIn,WindDirection,WindDirectionDegrees,WindSpeedMPH,WindSpeedGustMPH,Humidity,HourlyPrecipIn,Conditions,Clouds,dailyrainin,SoftwareType,DateUTC
2013-05-05 00:01:00,58.6,57.2,29.74,ESE,117,0.5,1.8,95,0.00,,,0.00,WUHU216HW,2013-05-05 05:01:00,
2013-05-05 00:06:00,58.5,57.0,29.75,ESE,113,0.4,0.7,95,0.00,,,0.00,WUHU216HW,2013-05-05 05:06:00,
2013-05-05 00:11:00,58.6,57.1,29.75,ESE,113,0.0,0.7,95,0.00,,,0.00,WUHU216HW,2013-05-05 05:11:00,
2013-05-05 00:16:00,58.2,56.8,29.75,SE,135,0.3,0.7,95,0.00,,,0.00,WUHU216HW,2013-05-05 05:16:00,
2013-05-05 00:21:00,58.2,56.8,29.75,SE,135,0.0,0.7,95,0.00,,,0.00,WUHU216HW,2013-05-05 05:21:00,
2013-05-05 00:26:00,58.3,56.9,29.74,SW,225,0.0,0.0,95,0.00,,,0.00,WUHU216HW,2013-05-05 05:26:00,
2013-05-05 00:31:00,58.2,56.7,29.74,SW,225,0.0,0.0,95,0.00,,,0.00,WUHU216HW,2013-05-05 05:31:00,
2013-05-05 00:36:00,58.1,56.6,29.74,East,90,0.0,0.0,95,0.00,,,0.00,WUHU216HW,2013-05-05 05:36:00,
2013-05-05 00:41:00,58.1,56.7,29.74,East,90,0.0,0.2,95,0.00,,,0.00,WUHU216HW,2013-05-05 05:41:00,
2013-05-05 00:46:00,58.0,56.6,29.73,East,90,0.0,0.2,95,0.00,,,0.00,WUHU216HW,2013-05-05 05:46:00,
2013-05-05 00:51:00,57.8,56.3,29.73,East,90,0.0,0.0,95,0.00,,,0.00,WUHU216HW,2013-05-05 05:51:00,
2013-05-05 00:56:00,57.8,56.4,29.73,East,90,0.0,0.0,95,0.00,,,0.00,WUHU216HW,2013-05-05 05:56:00,
2013-05-05 01:01:00,57.7,56.2,29.74,East,90,0.0,0.0,95,0.00,,,0.00,WUHU216HW,2013-05-05 06:01:00,
2013-05-05 01:06:00,57.5,56.1,29.74,NNE,23,0.4,0.7,95,0.00,,,0.00,WUHU216HW,2013-05-05 06:06:00,
2013-05-05 01:11:00,57.4,56.0,29.74,NNE,23,0.0,0.7,95,0.00,,,0.00,WUHU216HW,2013-05-05 06:11:00,
2013-05-05 01:16:00,56.9,55.5,29.74,NNE,23,0.0,0.4,95,0.00,,,0.00,WUHU216HW,2013-05-05 06:16:00,
2013-05-05 01:21:00,57.0,55.6,29.74,NNE,23,0.0,0.0,95,0.00,,,0.00,WUHU216HW,2013-05-05 06:21:00,
2013-05-05 01:26:00,56.4,55.0,29.74,NNE,23,0.0,0.0,95,0.00,,,0.00,WUHU216HW,2013-05-05 06:26:00,
2013-05-05 01:31:00,56.2,54.5,29.74,NNE,23,0.0,0.0,94,0.00,,,0.00,WUHU216HW,2013-05-05 06:31:00,
2013-05-05 01:36:00,55.6,53.9,29.73,NNE,23,0.0,0.0,94,0.00,,,0.00,WUHU216HW,2013-05-05 06:36:00,
2013-05-05 01:41:00,55.5,53.8,29.73,NNE,23,0.0,0.0,94,0.00,,,0.00,WUHU216HW,2013-05-05 06:41:00,
2013-05-05 01:46:00,55.4,53.7,29.73,NE,45,0.0,0.0,94,0.00,,,0.00,WUHU216HW,2013-05-05 06:46:00,
2013-05-05 01:51:00,55.0,53.3,29.73,NE,45,0.0,0.0,94,0.00,,,0.00,WUHU216HW,2013-05-05 06:51:00,
2013-05-05 01:56:00,55.0,53.3,29.73,SE,135,0.0,0.0,94,0.00,,,0.00,WUHU216HW,2013-05-05 06:56:00,
2013-05-05 02:01:00,55.0,53.3,29.73,SE,135,0.0,0.0,94,0.00,,,0.00,WUHU216HW,2013-05-05 07:01:00,
2013-05-05 02:06:00,54.9,53.2,29.73,ESE,113,0.0,0.0,94,0.00,,,0.00,WUHU216HW,2013-05-05 07:06:00,
2013-05-05 02:11:00,54.8,53.1,29.73,ESE,113,0.0,0.0,94,0.00,,,0.00,WUHU216HW,2013-05-05 07:11:00,
2013-05-05 02:16:00,54.4,52.7,29.72,North,0,0.0,0.0,94,0.00,,,0.00,WUHU216HW,2013-05-05 07:16:00,
2013-05-05 02:21:00,54.0,52.6,29.72,North,0,0.0,0.0,95,0.00,,,0.00,WUHU216HW,2013-05-05 07:21:00,
2013-05-05 02:26:00,54.0,52.6,29.72,North,0,0.0,0.0,95,0.00,,,0.00,WUHU216HW,2013-05-05 07:26:00,
2013-05-05 02:31:00,53.9,52.2,29.72,ENE,68,0.0,0.0,94,0.00,,,0.00,WUHU216HW,2013-05-05 07:31:00,
2013-05-05 02:36:00,53.3,51.9,29.72,NE,45,0.0,0.0,95,0.00,,,0.00,WUHU216HW,2013-05-05 07:36:00,
2013-05-05 02:41:00,53.1,51.7,29.72,NE,45,0.0,0.0,95,0.00,,,0.00,WUHU216HW,2013-05-05 07:41:00,
2013-05-05 02:46:00,53.0,51.6,29.72,NE,45,0.0,0.0,95,0.00,,,0.00,WUHU216HW,2013-05-05 07:46:00,
2013-05-05 02:51:00,52.8,51.4,29.72,NE,45,0.0,0.0,95,0.00,,,0.00,WUHU216HW,2013-05-05 07:51:00,
2013-05-05 02:56:00,52.6,51.2,29.71,NE,45,0.0,0.0,95,0.00,,,0.00,WUHU216HW,2013-05-05 07:56:00,
2013-05-05 03:01:00,52.3,50.9,29.71,NE,45,0.0,0.0,95,0.00,,,0.00,WUHU216HW,2013-05-05 08:01:00,
2013-05-05 03:06:00,52.1,50.7,29.72,NE,45,0.0,0.0,95,0.00,,,0.00,WUHU216HW,2013-05-05 08:06:00,
2013-05-05 03:11:00,51.8,50.4,29.72,NE,45,0.0,0.0,95,0.00,,,0.00,WUHU216HW,2013-05-05 08:11:00,
2013-05-05 03:16:00,51.6,50.2,29.71,NE,45,0.0,0.0,95,0.00,,,0.00,WUHU216HW,2013-05-05 08:16:00,
2013-05-05 03:21:00,51.3,49.9,29.71,NE,45,0.0,0.0,95,0.00,,,0.00,WUHU216HW,2013-05-05 08:21:00,
2013-05-05 03:26:00,51.5,50.1,29.71,ENE,68,0.0,0.4,95,0.00,,,0.00,WUHU216HW,2013-05-05 08:26:00,
2013-05-05 03:31:00,51.6,50.3,29.71,East,90,0.2,0.4,95,0.00,,,0.00,WUHU216HW,2013-05-05 08:31:00,
2013-05-05 03:36:00,51.6,50.2,29.71,ENE,68,0.0,0.2,95,0.00,,,0.00,WUHU216HW,2013-05-05 08:36:00,
2013-05-05 03:41:00,51.6,50.2,29.71,ENE,68,0.0,0.0,95,0.00,,,0.00,WUHU216HW,2013-05-05 08:41:00,
2013-05-05 03:46:00,51.3,49.9,29.71,SSE,158,0.0,0.0,95,0.00,,,0.00,WUHU216HW,2013-05-05 08:46:00,
2013-05-05 03:51:00,51.1,49.7,29.71,SE,135,0.0,0.0,95,0.00,,,0.00,WUHU216HW,2013-05-05 08:51:00,
2013-05-05 03:56:00,50.8,49.4,29.72,SE,135,0.0,0.0,95,0.00,,,0.00,WUHU216HW,2013-05-05 08:56:00,
2013-05-05 04:01:00,50.5,49.1,29.71,SE,135,0.0,0.0,95,0.00,,,0.00,WUHU216HW,2013-05-05 09:01:00,
2013-05-05 04:06:00,50.0,48.6,29.71,SE,135,0.0,0.0,95,0.00,,,0.00,WUHU216HW,2013-05-05 09:06:00,
2013-05-05 04:11:00,49.7,48.3,29.72,ESE,113,0.0,0.0,95,0.00,,,0.00,WUHU216HW,2013-05-05 09:11:00,
2013-05-05 04:16:00,50.1,48.7,29.71,ESE,113,0.0,0.0,95,0.00,,,0.00,WUHU216HW,2013-05-05 09:16:00,
2013-05-05 04:21:00,50.0,48.6,29.71,NE,45,0.0,0.0,95,0.00,,,0.00,WUHU216HW,2013-05-05 09:21:00,
2013-05-05 04:26:00,49.9,48.5,29.71,NE,45,0.0,0.0,95,0.00,,,0.00,WUHU216HW,2013-05-05 09:26:00,
2013-05-05 04:31:00,49.6,48.3,29.71,NE,45,0.0,0.0,95,0.00,,,0.00,WUHU216HW,2013-05-05 09:31:00,
2013-05-05 04:36:00,49.4,48.0,29.71,NE,45,0.0,0.0,95,0.00,,,0.00,WUHU216HW,2013-05-05 09:36:00,
2013-05-05 04:41:00,49.2,47.8,29.71,NE,45,0.0,0.0,95,0.00,,,0.00,WUHU216HW,2013-05-05 09:41:00,
2013-05-05 04:46:00,49.2,47.8,29.71,NE,45,0.0,0.0,95,0.00,,,0.00,WUHU216HW,2013-05-05 09:46:00,
2013-05-05 04:51:00,49.1,47.7,29.71,NE,45,0.0,0.0,95,0.00,,,0.00,WUHU216HW,2013-05-05 09:51:00,
2013-05-05 04:56:00,48.9,47.6,29.71,NE,45,0.0,0.0,95,0.00,,,0.00,WUHU216HW,2013-05-05 09:56:00,
2013-05-05 05:01:00,48.9,47.5,29.71,NE,45,0.2,0.4,95,0.00,,,0.00,WUHU216HW,2013-05-05 10:01:00,
2013-05-05 05:06:00,48.8,47.4,29.71,NE,45,0.0,0.4,95,0.00,,,0.00,WUHU216HW,2013-05-05 10:06:00,
2013-05-05 05:11:00,48.5,47.1,29.71,NE,45,0.2,0.2,95,0.00,,,0.00,WUHU216HW,2013-05-05 10:11:00,
2013-05-05 05:16:00,48.2,46.8,29.71,NE,45,0.0,0.2,95,0.00,,,0.00,WUHU216HW,2013-05-05 10:16:00,
2013-05-05 05:21:00,47.9,46.2,29.71,NE,45,0.0,0.0,94,0.00,,,0.00,WUHU216HW,2013-05-05 10:21:00,
2013-05-05 05:26:00,47.8,46.1,29.71,NE,45,0.0,0.4,94,0.00,,,0.00,WUHU216HW,2013-05-05 10:26:00,
2013-05-05 05:31:00,47.5,45.8,29.71,NE,45,0.0,0.4,94,0.00,,,0.00,WUHU216HW,2013-05-05 10:31:00,
2013-05-05 05:36:00,47.3,45.6,29.71,NE,45,0.0,0.0,94,0.00,,,0.00,WUHU216HW,2013-05-05 10:36:00,
2013-05-05 05:41:00,46.8,45.1,29.71,NE,45,0.0,0.0,94,0.00,,,0.00,WUHU216HW,2013-05-05 10:41:00,
2013-05-05 05:46:00,46.3,44.6,29.71,NE,45,0.0,0.0,94,0.00,,,0.00,WUHU216HW,2013-05-05 10:46:00,
2013-05-05 05:51:00,46.2,44.5,29.71,NE,45,0.0,0.0,94,0.00,,,0.00,WUHU216HW,2013-05-05 10:51:00,
2013-05-05 05:56:00,46.1,44.7,29.71,SE,135,0.0,0.2,95,0.00,,,0.00,WUHU216HW,2013-05-05 10:56:00,
2013-05-05 06:01:00,46.1,44.8,29.72,ENE,68,0.0,0.2,95,0.00,,,0.00,WUHU216HW,2013-05-05 11:01:00,
2013-05-05 06:06:00,46.6,45.3,29.72,SSE,158,0.0,0.0,95,0.00,,,0.00,WUHU216HW,2013-05-05 11:06:00,
2013-05-05 06:11:00,46.8,45.5,29.72,SSE,158,0.0,0.0,95,0.00,,,0.00,WUHU216HW,2013-05-05 11:11:00,
2013-05-05 06:16:00,46.7,45.3,29.72,SSE,158,0.0,0.0,95,0.00,,,0.00,WUHU216HW,2013-05-05 11:16:00,
2013-05-05 06:21:00,47.0,45.6,29.72,SSE,158,0.0,0.0,95,0.00,,,0.00,WUHU216HW,2013-05-05 11:21:00,
2013-05-05 06:26:00,47.6,46.2,29.72,ENE,68,0.0,0.0,95,0.00,,,0.00,WUHU216HW,2013-05-05 11:26:00,
2013-05-05 06:31:00,47.9,46.8,29.72,ENE,68,0.0,0.0,96,0.00,,,0.00,WUHU216HW,2013-05-05 11:31:00,
2013-05-05 06:36:00,48.3,47.2,29.72,ENE,68,0.0,0.0,96,0.00,,,0.00,WUHU216HW,2013-05-05 11:36:00,
2013-05-05 06:41:00,48.3,47.2,29.72,ENE,68,0.0,0.0,96,0.00,,,0.00,WUHU216HW,2013-05-05 11:41:00,
2013-05-05 06:46:00,48.7,47.6,29.72,ENE,68,0.0,0.0,96,0.00,,,0.00,WUHU216HW,2013-05-05 11:46:00,
2013-05-05 06:51:00,49.2,48.1,29.73,ESE,113,0.2,0.2,96,0.00,,,0.00,WUHU216HW,2013-05-05 11:51:00,
2013-05-05 06:56:00,49.8,48.7,29.73,East,90,0.0,0.4,96,0.00,,,0.00,WUHU216HW,2013-05-05 11:56:00,
2013-05-05 07:01:00,50.4,49.3,29.73,East,90,0.0,0.4,96,0.00,,,0.00,WUHU216HW,2013-05-05 12:01:00,
2013-05-05 07:06:00,50.8,49.7,29.73,East,90,0.0,0.0,96,0.00,,,0.00,WUHU216HW,2013-05-05 12:06:00,
2013-05-05 07:11:00,51.1,50.0,29.73,SW,215,0.3,0.4,96,0.00,,,0.00,WUHU216HW,2013-05-05 12:11:00,
2013-05-05 07:16:00,51.5,50.1,29.73,NNW,338,0.0,0.4,95,0.00,,,0.00,WUHU216HW,2013-05-05 12:16:00,
2013-05-05 07:21:00,51.8,50.4,29.73,SW,225,0.4,0.4,95,0.00,,,0.00,WUHU216HW,2013-05-05 12:21:00,
2013-05-05 07:26:00,52.2,50.8,29.72,SW,236,0.7,0.9,95,0.00,,,0.00,WUHU216HW,2013-05-05 12:26:00,
2013-05-05 07:31:00,52.6,51.2,29.73,SSW,203,0.2,1.1,95,0.00,,,0.00,WUHU216HW,2013-05-05 12:31:00,
2013-05-05 07:36:00,52.9,51.8,29.73,West,270,0.9,1.1,96,0.00,,,0.00,WUHU216HW,2013-05-05 12:36:00,
2013-05-05 07:41:00,53.1,52.0,29.73,NE,51,0.6,0.9,96,0.00,,,0.00,WUHU216HW,2013-05-05 12:41:00,
2013-05-05 07:46:00,53.6,52.5,29.73,North,0,0.0,0.9,96,0.00,,,0.00,WUHU216HW,2013-05-05 12:46:00,
2013-05-05 07:51:00,54.2,53.1,29.72,West,270,0.9,0.9,96,0.00,,,0.00,WUHU216HW,2013-05-05 12:51:00,
2013-05-05 07:56:00,54.0,52.9,29.72,NNE,17,0.5,0.9,96,0.00,,,0.00,WUHU216HW,2013-05-05 12:56:00,
2013-05-05 08:01:00,54.4,53.3,29.72,NNE,17,0.3,0.9,96,0.00,,,0.00,WUHU216HW,2013-05-05 13:01:00,
2013-05-05 08:06:00,54.4,53.3,29.72,SE,135,1.6,1.6,96,0.00,,,0.00,WUHU216HW,2013-05-05 13:06:00,
2013-05-05 08:11:00,54.4,53.3,29.73,West,270,1.1,1.6,96,0.00,,,0.00,WUHU216HW,2013-05-05 13:11:00,
2013-05-05 08:16:00,54.7,53.6,29.73,NNW,330,0.7,1.6,96,0.00,,,0.00,WUHU216HW,2013-05-05 13:16:00,
2013-05-05 08:21:00,54.9,53.8,29.73,NNW,345,1.0,1.3,96,0.00,,,0.00,WUHU216HW,2013-05-05 13:21:00,
2013-05-05 08:26:00,55.6,54.5,29.73,North,3,0.9,1.8,96,0.00,,,0.00,WUHU216HW,2013-05-05 13:26:00,
2013-05-05 08:31:00,55.6,54.5,29.73,NNE,17,1.3,2.2,96,0.00,,,0.00,WUHU216HW,2013-05-05 13:31:00,
2013-05-05 08:36:00,56.0,54.9,29.73,SW,225,1.1,2.2,96,0.00,,,0.00,WUHU216HW,2013-05-05 13:36:00,
2013-05-05 08:41:00,56.5,55.4,29.73,NW,316,0.9,2.0,96,0.00,,,0.00,WUHU216HW,2013-05-05 13:41:00,
2013-05-05 08:46:00,56.9,55.8,29.73,ENE,68,0.7,1.6,96,0.00,,,0.00,WUHU216HW,2013-05-05 13:46:00,
2013-05-05 08:51:00,57.4,56.3,29.73,WNW,300,0.7,1.1,96,0.00,,,0.00,WUHU216HW,2013-05-05 13:51:00,
2013-05-05 08:56:00,58.1,57.0,29.73,WNW,290,0.3,1.1,96,0.00,,,0.00,WUHU216HW,2013-05-05 13:56:00,
2013-05-05 09:01:00,58.5,57.4,29.73,North,0,0.9,1.8,96,0.00,,,0.00,WUHU216HW,2013-05-05 14:01:00,
2013-05-05 09:06:00,58.7,57.6,29.73,NNE,29,0.4,2.0,96,0.00,,,0.00,WUHU216HW,2013-05-05 14:06:00,
2013-05-05 09:11:00,60.1,59.0,29.73,NW,320,0.3,2.0,96,0.00,,,0.00,WUHU216HW,2013-05-05 14:11:00,
2013-05-05 09:16:00,61.6,60.1,29.73,NNW,336,0.5,1.6,95,0.00,,,0.00,WUHU216HW,2013-05-05 14:16:00,
2013-05-05 09:21:00,62.3,60.2,29.72,North,354,1.2,3.1,93,0.00,,,0.00,WUHU216HW,2013-05-05 14:21:00,
2013-05-05 09:26:00,62.6,59.6,29.72,WSW,247,1.2,3.1,90,0.00,,,0.00,WUHU216HW,2013-05-05 14:26:00,
2013-05-05 09:31:00,63.4,60.7,29.72,WNW,287,0.5,1.8,91,0.00,,,0.00,WUHU216HW,2013-05-05 14:31:00,
2013-05-05 09:36:00,64.2,60.6,29.72,West,270,1.3,1.8,88,0.00,,,0.00,WUHU216HW,2013-05-05 14:36:00,
2013-05-05 09:41:00,64.4,60.7,29.73,WNW,293,1.1,3.4,88,0.00,,,0.00,WUHU216HW,2013-05-05 14:41:00,
2013-05-05 09:46:00,64.8,61.5,29.73,NW,317,0.5,3.4,89,0.00,,,0.00,WUHU216HW,2013-05-05 14:46:00,
2013-05-05 09:51:00,65.4,61.5,29.73,NNE,19,1.2,2.7,87,0.00,,,0.00,WUHU216HW,2013-05-05 14:51:00,
2013-05-05 09:56:00,65.6,61.4,29.73,ENE,73,1.0,2.7,86,0.00,,,0.00,WUHU216HW,2013-05-05 14:56:00,
2013-05-05 10:01:00,65.9,62.0,29.73,NE,45,2.0,2.5,87,0.00,,,0.00,WUHU216HW,2013-05-05 15:01:00,
2013-05-05 10:06:00,65.6,60.7,29.74,NNE,19,1.5,4.0,84,0.00,,,0.00,WUHU216HW,2013-05-05 15:06:00,
2013-05-05 10:11:00,65.2,60.6,29.74,NE,50,1.1,4.0,85,0.00,,,0.00,WUHU216HW,2013-05-05 15:11:00,
2013-05-05 10:16:00,64.7,60.1,29.74,NNE,15,1.8,2.2,85,0.00,,,0.00,WUHU216HW,2013-05-05 15:16:00,
2013-05-05 10:21:00,64.1,59.5,29.74,North,5,2.9,5.1,85,0.00,,,0.00,WUHU216HW,2013-05-05 15:21:00,
2013-05-05 10:25:00,63.2,58.6,29.73,NNW,327,0.7,5.1,85,0.00,,,0.00,WUHU216HW,2013-05-05 15:25:00,
2013-05-05 10:31:00,63.1,58.6,29.73,NNW,331,1.2,5.1,85,0.00,,,0.00,WUHU216HW,2013-05-05 15:31:00,
2013-05-05 10:36:00,63.4,59.1,29.73,North,0,1.1,1.8,86,0.00,,,0.00,WUHU216HW,2013-05-05 15:36:00,
2013-05-05 10:41:00,63.3,58.7,29.73,NE,56,2.3,4.7,85,0.00,,,0.00,WUHU216HW,2013-05-05 15:41:00,
2013-05-05 10:46:00,63.0,57.8,29.74,NNE,23,4.7,4.7,83,0.00,,,0.00,WUHU216HW,2013-05-05 15:46:00,
2013-05-05 10:51:00,62.7,57.5,29.74,NNE,23,4.9,4.9,83,0.00,,,0.00,WUHU216HW,2013-05-05 15:51:00,
2013-05-05 10:56:00,62.5,57.3,29.74,NE,45,4.0,5.1,83,0.00,,,0.00,WUHU216HW,2013-05-05 15:56:00,
2013-05-05 11:01:00,62.7,57.5,29.74,North,350,1.8,5.1,83,0.00,,,0.00,WUHU216HW,2013-05-05 16:01:00,
2013-05-05 11:06:00,63.5,58.3,29.73,NE,48,2.7,5.8,83,0.00,,,0.00,WUHU216HW,2013-05-05 16:06:00,
2013-05-05 11:11:00,64.1,58.2,29.73,NNE,33,1.3,5.8,81,0.00,,,0.00,WUHU216HW,2013-05-05 16:11:00,
2013-05-05 11:16:00,64.0,57.8,29.74,North,357,2.0,4.5,80,0.00,,,0.00,WUHU216HW,2013-05-05 16:16:00,
2013-05-05 11:21:00,63.9,57.0,29.74,ENE,68,7.6,7.6,78,0.00,,,0.00,WUHU216HW,2013-05-05 16:21:00,
2013-05-05 11:26:00,63.8,57.6,29.74,NNE,24,1.9,7.6,80,0.00,,,0.00,WUHU216HW,2013-05-05 16:26:00,
2013-05-05 11:31:00,64.1,57.2,29.74,North,0,4.3,5.1,78,0.00,,,0.00,WUHU216HW,2013-05-05 16:31:00,
2013-05-05 11:36:00,64.0,57.8,29.74,NE,40,1.2,6.3,80,0.00,,,0.00,WUHU216HW,2013-05-05 16:36:00,
2013-05-05 11:41:00,64.7,58.1,29.73,SSE,158,2.7,6.3,79,0.00,,,0.00,WUHU216HW,2013-05-05 16:41:00,
2013-05-05 11:46:00,65.5,58.6,29.73,NE,45,4.0,4.0,78,0.00,,,0.00,WUHU216HW,2013-05-05 16:46:00,
2013-05-05 11:51:00,66.3,59.7,29.73,North,0,1.1,4.0,79,0.00,,,0.00,WUHU216HW,2013-05-05 16:51:00,
2013-05-05 11:56:00,66.2,58.2,29.73,NNE,29,2.8,4.3,75,0.00,,,0.00,WUHU216HW,2013-05-05 16:56:00,
2013-05-05 12:01:00,66.5,58.5,29.73,North,9,1.0,4.3,75,0.00,,,0.00,WUHU216HW,2013-05-05 17:01:00,
2013-05-05 12:06:00,67.6,58.0,29.73,NE,38,1.9,3.1,71,0.00,,,0.00,WUHU216HW,2013-05-05 17:06:00,
2013-05-05 12:11:00,67.1,56.8,29.72,East,90,3.1,3.6,69,0.00,,,0.00,WUHU216HW,2013-05-05 17:11:00,
2013-05-05 12:16:00,66.8,57.3,29.72,NNE,25,1.7,3.8,71,0.00,,,0.00,WUHU216HW,2013-05-05 17:16:00,
2013-05-05 12:21:00,66.8,57.6,29.72,NNW,338,1.3,6.5,72,0.00,,,0.00,WUHU216HW,2013-05-05 17:21:00,
2013-05-05 12:26:00,67.3,56.6,29.72,NNE,29,3.6,6.5,68,0.00,,,0.00,WUHU216HW,2013-05-05 17:26:00,
2013-05-05 12:31:00,67.5,57.2,29.72,NE,35,1.9,6.0,69,0.00,,,0.00,WUHU216HW,2013-05-05 17:31:00,
2013-05-05 12:36:00,69.3,58.5,29.71,North,0,4.7,5.4,68,0.00,,,0.00,WUHU216HW,2013-05-05 17:36:00,
2013-05-05 12:41:00,68.9,57.3,29.71,NE,45,3.1,4.7,66,0.00,,,0.00,WUHU216HW,2013-05-05 17:41:00,
2013-05-05 12:46:00,69.6,58.8,29.71,North,0,3.8,4.7,68,0.00,,,0.00,WUHU216HW,2013-05-05 17:46:00,
2013-05-05 12:51:00,70.0,57.9,29.71,West,268,2.1,3.8,65,0.00,,,0.00,WUHU216HW,2013-05-05 17:51:00,
2013-05-05 12:56:00,70.0,57.0,29.70,SSE,158,3.8,5.6,63,0.00,,,0.00,WUHU216HW,2013-05-05 17:56:00,
2013-05-05 13:01:00,69.2,56.8,29.70,NNE,15,4.0,6.0,64,0.00,,,0.00,WUHU216HW,2013-05-05 18:01:00,
2013-05-05 13:06:00,70.1,58.0,29.70,NNE,32,3.0,6.0,65,0.00,,,0.00,WUHU216HW,2013-05-05 18:06:00,
2013-05-05 13:11:00,70.2,56.4,29.70,NNE,16,3.5,4.7,61,0.00,,,0.00,WUHU216HW,2013-05-05 18:11:00,
2013-05-05 13:16:00,70.5,56.2,29.70,North,0,6.7,6.7,60,0.01,,,0.01,WUHU216HW,2013-05-05 18:16:00,
2013-05-05 13:21:00,70.0,55.7,29.70,NNE,29,3.7,6.7,60,0.01,,,0.01,WUHU216HW,2013-05-05 18:21:00,
2013-05-05 13:26:00,69.5,55.3,29.70,NE,45,6.9,6.9,60,0.01,,,0.01,WUHU216HW,2013-05-05 18:26:00,
2013-05-05 13:31:00,69.5,54.8,29.70,NE,41,4.9,6.9,59,0.01,,,0.01,WUHU216HW,2013-05-05 18:31:00,
2013-05-05 13:36:00,70.1,55.8,29.69,NNE,25,2.4,6.3,60,0.01,,,0.01,WUHU216HW,2013-05-05 18:36:00,
2013-05-05 13:41:00,71.2,56.8,29.69,NW,304,1.7,4.0,60,0.01,,,0.01,WUHU216HW,2013-05-05 18:41:00,
2013-05-05 13:46:00,71.7,57.3,29.69,NW,324,1.2,3.1,60,0.01,,,0.01,WUHU216HW,2013-05-05 18:46:00,
2013-05-05 13:51:00,72.3,57.4,29.69,NE,45,2.7,2.7,59,0.01,,,0.01,WUHU216HW,2013-05-05 18:51:00,
2013-05-05 13:56:00,72.3,56.4,29.68,NNW,338,1.8,4.5,57,0.01,,,0.01,WUHU216HW,2013-05-05 18:56:00,
2013-05-05 14:01:00,71.8,55.0,29.68,North,0,2.7,4.5,55,0.01,,,0.01,WUHU216HW,2013-05-05 19:01:00,
2013-05-05 14:06:00,72.0,56.6,29.68,NNE,23,3.1,4.5,58,0.01,,,0.01,WUHU216HW,2013-05-05 19:06:00,
2013-05-05 14:11:00,72.9,56.5,29.68,West,270,1.6,3.1,56,0.01,,,0.01,WUHU216HW,2013-05-05 19:11:00,
2013-05-05 14:16:00,72.1,54.7,29.68,NNE,18,3.7,5.1,54,0.00,,,0.01,WUHU216HW,2013-05-05 19:16:00,
2013-05-05 14:21:00,71.2,54.9,29.68,NNE,28,3.5,6.3,56,0.00,,,0.01,WUHU216HW,2013-05-05 19:21:00,
2013-05-05 14:26:00,71.6,54.3,29.68,North,9,2.7,6.3,54,0.00,,,0.01,WUHU216HW,2013-05-05 19:26:00,
2013-05-05 14:31:00,71.6,54.3,29.67,NE,45,4.9,5.1,54,0.00,,,0.01,WUHU216HW,2013-05-05 19:31:00,
2013-05-05 14:36:00,71.4,54.6,29.67,NE,46,3.0,5.4,55,0.00,,,0.01,WUHU216HW,2013-05-05 19:36:00,
2013-05-05 14:41:00,72.0,56.2,29.67,West,270,2.5,5.4,57,0.00,,,0.01,WUHU216HW,2013-05-05 19:41:00,
2013-05-05 14:46:00,73.1,56.6,29.67,NE,45,1.8,3.8,56,0.00,,,0.01,WUHU216HW,2013-05-05 19:46:00,
2013-05-05 14:51:00,73.3,55.8,29.67,West,270,4.0,6.5,54,0.00,,,0.01,WUHU216HW,2013-05-05 19:51:00,
2013-05-05 14:56:00,74.0,56.0,29.67,NNW,338,2.9,6.5,53,0.00,,,0.01,WUHU216HW,2013-05-05 19:56:00,
2013-05-05 15:01:00,74.8,55.1,29.67,NE,45,2.5,4.0,50,0.00,,,0.01,WUHU216HW,2013-05-05 20:01:00,
2013-05-05 15:06:00,74.5,53.6,29.67,NNE,23,4.7,6.7,48,0.00,,,0.01,WUHU216HW,2013-05-05 20:06:00,
2013-05-05 15:11:00,73.4,53.8,29.67,NNE,23,4.7,6.7,50,0.00,,,0.01,WUHU216HW,2013-05-05 20:11:00,
2013-05-05 15:16:00,73.8,53.0,29.67,NNE,12,4.2,8.3,48,0.00,,,0.01,WUHU216HW,2013-05-05 20:16:00,
2013-05-05 15:21:00,73.9,54.2,29.67,North,3,2.3,8.3,50,0.00,,,0.01,WUHU216HW,2013-05-05 20:21:00,
2013-05-05 15:26:00,74.8,53.3,29.67,North,0,6.3,6.3,47,0.00,,,0.01,WUHU216HW,2013-05-05 20:26:00,
2013-05-05 15:31:00,73.5,52.7,29.66,NNE,26,2.5,6.7,48,0.00,,,0.01,WUHU216HW,2013-05-05 20:31:00,
2013-05-05 15:36:00,74.7,55.0,29.66,NW,315,2.2,6.7,50,0.00,,,0.01,WUHU216HW,2013-05-05 20:36:00,
2013-05-05 15:41:00,75.2,54.3,29.66,ENE,68,4.7,5.6,48,0.00,,,0.01,WUHU216HW,2013-05-05 20:41:00,
2013-05-05 15:46:00,74.3,53.4,29.66,NE,45,3.1,5.6,48,0.00,,,0.01,WUHU216HW,2013-05-05 20:46:00,
2013-05-05 15:51:00,73.5,53.3,29.66,NE,45,4.3,4.7,49,0.00,,,0.01,WUHU216HW,2013-05-05 20:51:00,
2013-05-05 15:56:00,74.5,54.8,29.66,NNE,19,2.4,6.0,50,0.00,,,0.01,WUHU216HW,2013-05-05 20:56:00,
2013-05-05 16:01:00,74.8,53.3,29.66,NW,315,1.8,6.0,47,0.00,,,0.01,WUHU216HW,2013-05-05 21:01:00,
2013-05-05 16:06:00,74.6,55.5,29.66,NNW,338,1.1,4.0,51,0.00,,,0.01,WUHU216HW,2013-05-05 21:06:00,
2013-05-05 16:11:00,75.6,54.6,29.66,NE,45,3.4,6.5,48,0.00,,,0.01,WUHU216HW,2013-05-05 21:11:00,
2013-05-05 16:16:00,75.7,54.1,29.66,NNE,23,2.9,6.5,47,0.00,,,0.01,WUHU216HW,2013-05-05 21:16:00,
2013-05-05 16:21:00,76.1,55.1,29.66,NNE,22,3.2,4.5,48,0.00,,,0.01,WUHU216HW,2013-05-05 21:21:00,
2013-05-05 16:26:00,76.6,53.7,29.66,NNW,338,5.4,8.5,45,0.00,,,0.01,WUHU216HW,2013-05-05 21:26:00,
2013-05-05 16:31:00,75.8,54.2,29.66,North,0,4.5,8.5,47,0.00,,,0.01,WUHU216HW,2013-05-05 21:31:00,
2013-05-05 16:36:00,75.0,52.9,29.66,NNE,21,4.3,5.6,46,0.00,,,0.01,WUHU216HW,2013-05-05 21:36:00,
2013-05-05 16:41:00,74.1,52.7,29.66,NNE,23,2.9,5.6,47,0.00,,,0.01,WUHU216HW,2013-05-05 21:41:00,
2013-05-05 16:46:00,72.9,53.3,29.66,NNE,23,2.4,5.6,50,0.00,,,0.01,WUHU216HW,2013-05-05 21:46:00,
2013-05-05 16:51:00,72.1,52.5,29.66,NE,54,3.5,5.6,50,0.00,,,0.01,WUHU216HW,2013-05-05 21:51:00,
2013-05-05 16:56:00,72.0,53.0,29.66,ESE,113,2.5,4.7,51,0.00,,,0.01,WUHU216HW,2013-05-05 21:56:00,
2013-05-05 17:01:00,72.1,54.2,29.66,North,0,1.3,2.9,53,0.00,,,0.01,WUHU216HW,2013-05-05 22:01:00,
2013-05-05 17:06:00,72.7,54.3,29.66,North,0,2.7,3.4,52,0.00,,,0.01,WUHU216HW,2013-05-05 22:06:00,
2013-05-05 17:11:00,73.5,53.9,29.66,SW,225,1.8,3.4,50,0.00,,,0.01,WUHU216HW,2013-05-05 22:11:00,
2013-05-05 17:16:00,73.9,54.3,29.66,North,0,2.7,2.9,50,0.00,,,0.01,WUHU216HW,2013-05-05 22:16:00,
2013-05-05 17:21:00,73.5,53.9,29.66,NNW,333,1.8,4.7,50,0.00,,,0.01,WUHU216HW,2013-05-05 22:21:00,
2013-05-05 17:26:00,74.0,54.3,29.66,SSE,158,4.7,4.7,50,0.00,,,0.01,WUHU216HW,2013-05-05 22:26:00,
2013-05-05 17:31:00,73.3,53.7,29.66,NNE,29,1.3,5.4,50,0.00,,,0.01,WUHU216HW,2013-05-05 22:31:00,
2013-05-05 17:36:00,75.2,56.0,29.66,NNE,23,4.7,5.4,51,0.00,,,0.01,WUHU216HW,2013-05-05 22:36:00,
2013-05-05 17:41:00,76.4,54.2,29.65,NNW,338,3.4,5.8,46,0.00,,,0.01,WUHU216HW,2013-05-05 22:41:00,
2013-05-05 17:46:00,77.1,55.4,29.66,NNW,338,2.5,5.8,47,0.00,,,0.01,WUHU216HW,2013-05-05 22:46:00,
2013-05-05 17:51:00,77.3,55.0,29.66,NNW,338,2.0,3.4,46,0.00,,,0.01,WUHU216HW,2013-05-05 22:51:00,
2013-05-05 17:56:00,77.6,54.0,29.66,NNE,24,3.9,7.4,44,0.00,,,0.01,WUHU216HW,2013-05-05 22:56:00,
2013-05-05 18:01:00,76.8,54.6,29.66,NNW,342,1.2,7.4,46,0.00,,,0.01,WUHU216HW,2013-05-05 23:01:00,
2013-05-05 18:05:00,75.1,54.2,29.66,North,7,2.3,4.5,48,0.00,,,0.01,WUHU216HW,2013-05-05 23:05:00,
2013-05-05 18:10:00,73.4,53.2,29.66,NNE,15,3.1,6.0,49,0.00,,,0.01,WUHU216HW,2013-05-05 23:10:00,
2013-05-05 18:15:00,73.2,53.6,29.66,East,90,5.6,6.0,50,0.00,,,0.01,WUHU216HW,2013-05-05 23:15:00,
2013-05-05 18:20:00,72.5,53.5,29.66,NE,45,4.3,5.8,51,0.00,,,0.01,WUHU216HW,2013-05-05 23:20:00,
2013-05-05 18:26:00,72.3,54.4,29.66,ENE,66,1.6,5.8,53,0.00,,,0.01,WUHU216HW,2013-05-05 23:26:00,
2013-05-05 18:31:00,72.2,54.3,29.66,North,0,2.7,4.7,53,0.00,,,0.01,WUHU216HW,2013-05-05 23:31:00,
2013-05-05 18:37:00,71.9,55.6,29.66,North,356,0.5,1.8,56,0.00,,,0.01,WUHU216HW,2013-05-05 23:37:00,
2013-05-05 18:43:00,71.8,55.5,29.66,North,359,0.7,2.7,56,0.00,,,0.01,WUHU216HW,2013-05-05 23:43:00,
2013-05-05 18:48:00,72.4,56.6,29.66,North,0,1.1,2.7,57,0.00,,,0.01,WUHU216HW,2013-05-05 23:48:00,
2013-05-05 18:53:00,73.0,56.5,29.66,NE,45,0.4,1.1,56,0.00,,,0.01,WUHU216HW,2013-05-05 23:53:00,
2013-05-05 18:58:00,72.5,56.6,29.66,North,352,0.5,1.8,57,0.00,,,0.01,WUHU216HW,2013-05-05 23:58:00,
2013-05-05 19:03:00,72.0,56.1,29.66,North,9,0.6,1.8,57,0.00,,,0.01,WUHU216HW,2013-05-06 00:03:00,
2013-05-05 19:08:00,71.8,56.0,29.66,North,6,0.8,1.3,57,0.00,,,0.01,WUHU216HW,2013-05-06 00:08:00,
2013-05-05 19:16:00,70.9,56.1,29.66,NNW,338,0.2,4.9,59,0.00,,,0.01,WUHU216HW,2013-05-06 00:16:00,
2013-05-05 19:22:00,70.0,55.2,29.66,NNE,23,0.4,0.4,59,0.00,,,0.01,WUHU216HW,2013-05-06 00:22:00,
2013-05-05 19:27:00,69.5,55.2,29.66,NE,45,0.5,0.9,60,0.00,,,0.01,WUHU216HW,2013-05-06 00:27:00,
2013-05-05 19:32:00,68.8,55.5,29.66,North,0,0.2,0.9,62,0.00,,,0.01,WUHU216HW,2013-05-06 00:32:00,
2013-05-05 19:37:00,68.0,55.2,29.66,North,354,0.6,0.9,63,0.00,,,0.01,WUHU216HW,2013-05-06 00:37:00,
2013-05-05 19:42:00,67.3,55.8,29.66,NNE,23,1.1,1.8,66,0.00,,,0.01,WUHU216HW,2013-05-06 00:42:00,
2013-05-05 19:47:00,67.0,55.9,29.67,ENE,68,0.4,1.8,67,0.00,,,0.01,WUHU216HW,2013-05-06 00:47:00,
2013-05-05 19:52:00,66.4,55.7,29.67,ENE,74,0.7,1.6,68,0.00,,,0.01,WUHU216HW,2013-05-06 00:52:00,
2013-05-05 19:57:00,65.9,56.0,29.67,NE,45,1.1,1.3,70,0.00,,,0.01,WUHU216HW,2013-05-06 00:57:00,
2013-05-05 20:02:00,65.5,55.7,29.67,NE,45,1.6,1.6,70,0.00,,,0.01,WUHU216HW,2013-05-06 01:02:00,
2013-05-05 20:07:00,65.3,55.5,29.67,NE,56,0.8,1.6,70,0.00,,,0.01,WUHU216HW,2013-05-06 01:07:00,
2013-05-05 20:12:00,65.2,55.4,29.67,NE,40,0.8,2.2,70,0.00,,,0.01,WUHU216HW,2013-05-06 01:12:00,
2013-05-05 20:17:00,64.6,54.8,29.67,ESE,113,0.9,1.1,70,0.00,,,0.01,WUHU216HW,2013-05-06 01:17:00,
2013-05-05 20:22:00,64.4,54.6,29.67,NE,43,0.4,1.3,70,0.00,,,0.01,WUHU216HW,2013-05-06 01:22:00,
2013-05-05 20:27:00,64.1,54.7,29.67,NNE,13,0.5,1.3,71,0.00,,,0.01,WUHU216HW,2013-05-06 01:27:00,
2013-05-05 20:32:00,63.5,54.1,29.68,NE,45,0.4,0.9,71,0.00,,,0.01,WUHU216HW,2013-05-06 01:32:00,
2013-05-05 20:37:00,63.0,53.6,29.68,North,0,0.0,0.4,71,0.00,,,0.01,WUHU216HW,2013-05-06 01:37:00,
2013-05-05 20:42:00,62.5,53.9,29.68,NE,48,1.0,2.2,73,0.00,,,0.01,WUHU216HW,2013-05-06 01:42:00,
2013-05-05 20:47:00,62.3,53.7,29.68,NE,45,0.4,2.2,73,0.00,,,0.01,WUHU216HW,2013-05-06 01:47:00,
2013-05-05 20:52:00,61.7,52.7,29.68,North,0,0.4,0.7,72,0.00,,,0.01,WUHU216HW,2013-05-06 01:52:00,
2013-05-05 20:57:00,61.2,52.6,29.69,NNE,23,0.5,0.9,73,0.00,,,0.01,WUHU216HW,2013-05-06 01:57:00,
2013-05-05 21:02:00,60.7,52.5,29.69,North,0,0.4,0.9,74,0.00,,,0.01,WUHU216HW,2013-05-06 02:02:00,
2013-05-05 21:09:00,60.3,53.2,29.69,North,0,0.9,0.9,77,0.00,,,0.01,WUHU216HW,2013-05-06 02:09:00,
2013-05-05 21:15:00,59.9,52.8,29.70,NNE,18,0.5,0.9,77,0.00,,,0.01,WUHU216HW,2013-05-06 02:15:00,
2013-05-05 21:20:00,59.8,53.0,29.70,North,10,0.7,1.1,78,0.00,,,0.01,WUHU216HW,2013-05-06 02:20:00,
2013-05-05 21:25:00,59.0,52.6,29.70,NNW,338,0.0,1.1,79,0.00,,,0.01,WUHU216HW,2013-05-06 02:25:00,
2013-05-05 21:30:00,58.7,52.6,29.70,North,0,0.3,0.4,80,0.00,,,0.01,WUHU216HW,2013-05-06 02:30:00,
2013-05-05 21:35:00,58.3,52.6,29.70,North,0,0.4,0.7,81,0.00,,,0.01,WUHU216HW,2013-05-06 02:35:00,
2013-05-05 21:40:00,58.1,52.7,29.70,NE,43,0.3,0.7,82,0.00,,,0.01,WUHU216HW,2013-05-06 02:40:00,
2013-05-05 21:46:00,57.8,52.4,29.70,NNE,23,0.0,0.7,82,0.00,,,0.01,WUHU216HW,2013-05-06 02:46:00,
2013-05-05 21:51:00,57.4,52.3,29.71,SE,135,0.9,0.9,83,0.00,,,0.01,WUHU216HW,2013-05-06 02:51:00,
2013-05-05 21:56:00,57.2,52.5,29.71,ENE,68,0.4,0.9,84,0.00,,,0.01,WUHU216HW,2013-05-06 02:56:00,
2013-05-05 22:01:00,57.2,52.2,29.71,West,270,0.0,0.9,83,0.00,,,0.01,WUHU216HW,2013-05-06 03:01:00,
2013-05-05 22:06:00,57.0,51.7,29.71,West,270,0.0,0.0,82,0.00,,,0.01,WUHU216HW,2013-05-06 03:06:00,
2013-05-05 22:11:00,57.0,51.6,29.71,ENE,68,0.2,0.4,82,0.00,,,0.01,WUHU216HW,2013-05-06 03:11:00,
2013-05-05 22:16:00,58.2,52.1,29.71,ESE,113,0.4,1.3,80,0.00,,,0.01,WUHU216HW,2013-05-06 03:16:00,
2013-05-05 22:22:00,59.5,52.4,29.71,East,79,0.8,1.6,77,0.00,,,0.01,WUHU216HW,2013-05-06 03:22:00,
2013-05-05 22:27:00,60.0,52.9,29.71,NE,45,0.4,1.6,77,0.00,,,0.01,WUHU216HW,2013-05-06 03:27:00,
2013-05-05 22:32:00,60.2,52.3,29.71,ESE,105,0.3,0.9,75,0.00,,,0.01,WUHU216HW,2013-05-06 03:32:00,
2013-05-05 22:37:00,60.3,52.5,29.71,SE,135,0.0,0.9,75,0.00,,,0.01,WUHU216HW,2013-05-06 03:37:00,
2013-05-05 22:42:00,60.0,52.2,29.71,East,90,0.0,0.4,75,0.00,,,0.01,WUHU216HW,2013-05-06 03:42:00,
2013-05-05 22:47:00,59.8,52.0,29.72,East,90,0.2,0.4,75,0.00,,,0.01,WUHU216HW,2013-05-06 03:47:00,
2013-05-05 22:52:00,59.5,52.4,29.72,North,0,0.0,0.4,77,0.00,,,0.01,WUHU216HW,2013-05-06 03:52:00,
2013-05-05 22:58:00,58.5,52.5,29.72,North,0,0.0,0.0,80,0.00,,,0.01,WUHU216HW,2013-05-06 03:58:00,
2013-05-05 23:01:00,58.1,52.0,29.72,North,0,0.0,0.0,80,0.00,,,0.01,WUHU216HW,2013-05-06 04:01:00,
2013-05-05 23:06:00,57.5,52.1,29.72,North,0,0.0,0.0,82,0.00,,,0.01,WUHU216HW,2013-05-06 04:06:00,
2013-05-05 23:11:00,56.9,51.2,29.71,NNW,338,0.0,0.0,81,0.00,,,0.01,WUHU216HW,2013-05-06 04:11:00,
2013-05-05 23:16:00,56.4,51.1,29.71,NNW,338,0.0,0.0,82,0.00,,,0.01,WUHU216HW,2013-05-06 04:16:00,
2013-05-05 23:21:00,56.2,51.2,29.71,NNW,338,0.0,0.0,83,0.00,,,0.01,WUHU216HW,2013-05-06 04:21:00,
2013-05-05 23:26:00,55.9,50.9,29.71,NNW,338,0.0,0.0,83,0.00,,,0.01,WUHU216HW,2013-05-06 04:26:00,
2013-05-05 23:31:00,55.8,51.1,29.71,NNW,338,0.0,0.0,84,0.00,,,0.01,WUHU216HW,2013-05-06 04:31:00,
2013-05-05 23:38:00,55.8,51.4,29.71,North,0,0.0,0.0,85,0.00,,,0.01,WUHU216HW,2013-05-06 04:38:00,
2013-05-05 23:43:00,55.6,51.2,29.71,North,0,0.0,0.0,85,0.00,,,0.01,WUHU216HW,2013-05-06 04:43:00,
2013-05-05 23:48:00,55.5,51.4,29.71,North,0,0.0,0.0,86,0.00,,,0.01,WUHU216HW,2013-05-06 04:48:00,
2013-05-05 23:53:00,55.4,51.3,29.71,NNE,23,0.4,0.4,86,0.00,,,0.01,WUHU216HW,2013-05-06 04:53:00,
2013-05-05 23:58:00,55.4,51.7,29.71,NNE,23,0.0,0.4,87,0.00,,,0.01,WUHU216HW,2013-05-06 04:58:00,